When you browse on this site, cookies collect data to enhance your experience and personalize the content and advertising you see.
Visit our Privacy Policy to learn more. By continuing to use the site, you agree to this use of cookies and data.
  • In Hungary
  • List of Countries
  • For 7 days
  • Water Temperature
  • Satellite Maps
  • Weather Map
  • News
  • Weather Widgets
  • user-avatar
    Login

    Hourly Weather Prilep

    Today, 18 November, Sunday

    Time Temperature Precipitation Wind Pressure Humidity
    00:00 +1°C° 0.3 mm 1 mps 689 mmHg 78%
    01:00 +1°C° 0 mm 1 mps 689 mmHg 81%
    02:00 +1°C° 0.2 mm 1 mps 688 mmHg 81%
    03:00 +1°C° 0.2 mm 1 mps 688 mmHg 82%
    04:00 +1°C° 0.2 mm 1 mps 688 mmHg 82%
    05:00 +1°C° 0.5 mm 1 mps 688 mmHg 82%
    06:00 +2°C° 0.5 mm 1 mps 687 mmHg 82%
    07:00 +2°C° 0 mm 1 mps 687 mmHg 83%
    08:00 +2°C° 0.6 mm 1 mps 687 mmHg 82%
    09:00 +2°C° 0.6 mm 2 mps 687 mmHg 81%
    10:00 +2°C° 0.6 mm 2 mps 686 mmHg 80%
    11:00 +3°C° 1.1 mm 2 mps 686 mmHg 81%
    12:00 +3°C° 1.1 mm 2 mps 685 mmHg 83%
    13:00 +4°C° 0 mm 1 mps 684 mmHg 85%
    14:00 +4°C° 1.6 mm 1 mps 684 mmHg 87%
    15:00 +2°C° 1.6 mm 2 mps 683 mmHg 88%
    16:00 +2°C° 1.6 mm 2 mps 682 mmHg 89%
    17:00 +3°C° 1.6 mm 1 mps 682 mmHg 89%
    18:00 +3°C° 1.6 mm 1 mps 682 mmHg 89%
    19:00 +3°C° 1.6 mm 1 mps 681 mmHg 89%
    20:00 +3°C° 0.6 mm 1 mps 681 mmHg 89%
    21:00 +3°C° 0.6 mm 1 mps 681 mmHg 89%
    22:00 +3°C° 0.6 mm 1 mps 681 mmHg 89%
    23:00 +3°C° 0.1 mm 1 mps 681 mmHg 88%

    Tomorrow, 19 November, Monday

    Time Temperature Precipitation Wind Pressure Humidity
    00:00 +3°C° 0.1 mm 1 mps 681 mmHg 88%
    01:00 +2°C° 0.1 mm 1 mps 680 mmHg 88%
    02:00 +2°C° 0 mm 1 mps 680 mmHg 88%
    03:00 +2°C° 0 mm 1 mps 680 mmHg 88%
    04:00 +1°C° 0 mm 1 mps 680 mmHg 88%
    05:00 +1°C° 0 mm 1 mps 681 mmHg 87%
    06:00 +1°C° 0 mm 1 mps 681 mmHg 86%
    07:00 +1°C° 0 mm 1 mps 681 mmHg 86%
    08:00 +2°C° 0 mm 1 mps 682 mmHg 83%
    09:00 +4°C° 0 mm 1 mps 682 mmHg 81%
    10:00 +5°C° 0 mm 1 mps 683 mmHg 79%
    11:00 +6°C° 0 mm 1 mps 683 mmHg 77%
    12:00 +6°C° 0 mm 1 mps 683 mmHg 76%
    13:00 +7°C° 0 mm 1 mps 683 mmHg 74%
    14:00 +6°C° 0 mm 1 mps 683 mmHg 77%
    15:00 +6°C° 0 mm 1 mps 683 mmHg 79%
    16:00 +5°C° 0 mm 1 mps 684 mmHg 82%
    17:00 +5°C° 0 mm 1 mps 684 mmHg 83%
    18:00 +4°C° 0 mm 1 mps 684 mmHg 84%
    19:00 +4°C° 0 mm 1 mps 684 mmHg 85%
    20:00 +4°C° 0.1 mm 1 mps 684 mmHg 84%
    21:00 +5°C° 0.1 mm 1 mps 685 mmHg 84%
    22:00 +5°C° 0.1 mm 1 mps 685 mmHg 83%
    23:00 +5°C° 1 mm 1 mps 685 mmHg 85%

    Day after tomorrow, 20 November, Tuesday

    Time Temperature Precipitation Wind Pressure Humidity
    00:00 +4°C° 1 mm 2 mps 685 mmHg 87%
    01:00 +4°C° 1 mm 2 mps 685 mmHg 89%
    02:00 +4°C° 0.5 mm 2 mps 685 mmHg 90%
    03:00 +4°C° 0.5 mm 2 mps 684 mmHg 90%
    04:00 +4°C° 0.5 mm 2 mps 684 mmHg 90%
    05:00 +4°C° 0.4 mm 2 mps 684 mmHg 91%
    06:00 +4°C° 0.4 mm 2 mps 684 mmHg 91%
    07:00 +4°C° 0.4 mm 2 mps 684 mmHg 91%
    08:00 +5°C° 0.5 mm 2 mps 685 mmHg 90%
    09:00 +6°C° 0.5 mm 2 mps 685 mmHg 89%
    10:00 +5°C° 0.5 mm 3 mps 685 mmHg 88%
    11:00 +7°C° 0.4 mm 3 mps 684 mmHg 87%
    12:00 +8°C° 0.4 mm 3 mps 684 mmHg 87%
    13:00 +8°C° 0.4 mm 3 mps 684 mmHg 86%
    14:00 +8°C° 0.2 mm 2 mps 684 mmHg 88%
    15:00 +7°C° 0.2 mm 2 mps 684 mmHg 90%
    16:00 +7°C° 0.2 mm 2 mps 683 mmHg 91%
    17:00 +7°C° 0.1 mm 2 mps 683 mmHg 92%
    18:00 +7°C° 0.1 mm 2 mps 683 mmHg 93%
    19:00 +6°C° 0.1 mm 2 mps 683 mmHg 95%
    20:00 +6°C° 0.4 mm 2 mps 683 mmHg 95%
    21:00 +8°C° 0.4 mm 1 mps 683 mmHg 95%
    22:00 +8°C° 0.4 mm 1 mps 683 mmHg 95%
    23:00 +8°C° 0.3 mm 1 mps 683 mmHg 95%

    21 November, Wednesday

    Time Temperature Precipitation Wind Pressure Humidity
    00:00 +7°C° 0.3 mm 1 mps 682 mmHg 95%
    01:00 +7°C° 0.3 mm 1 mps 682 mmHg 95%
    02:00 +8°C° 0.5 mm 1 mps 681 mmHg 95%
    03:00 +8°C° 0.5 mm 1 mps 681 mmHg 95%
    04:00 +8°C° 0.5 mm 1 mps 680 mmHg 95%
    05:00 +8°C° 0.4 mm 1 mps 680 mmHg 94%
    06:00 +8°C° 0.4 mm 1 mps 680 mmHg 94%
    07:00 +8°C° 0.4 mm 1 mps 680 mmHg 93%
    08:00 +9°C° 0 mm 1 mps 681 mmHg 90%
    09:00 +9°C° 0 mm 1 mps 681 mmHg 87%
    10:00 +10°C° 0 mm 1 mps 681 mmHg 84%
    11:00 +11°C° 0.1 mm 1 mps 681 mmHg 82%
    12:00 +11°C° 0.1 mm 1 mps 681 mmHg 80%
    13:00 +11°C° 0.1 mm 1 mps 681 mmHg 77%
    14:00 +11°C° 0.4 mm 1 mps 682 mmHg 81%
    15:00 +10°C° 0.4 mm 1 mps 682 mmHg 85%
    16:00 +9°C° 0.4 mm 1 mps 682 mmHg 88%
    17:00 +9°C° 0.3 mm 1 mps 682 mmHg 89%
    18:00 +9°C° 0.3 mm 1 mps 683 mmHg 89%
    19:00 +8°C° 0.3 mm 1 mps 683 mmHg 90%
    20:00 +8°C° 0.1 mm 1 mps 683 mmHg 90%
    21:00 +8°C° 0.1 mm 1 mps 684 mmHg 90%
    22:00 +8°C° 0.1 mm 1 mps 684 mmHg 91%
    23:00 +7°C° 0.1 mm 1 mps 684 mmHg 90%

    22 November, Thursday

    Time Temperature Precipitation Wind Pressure Humidity
    00:00 +7°C° 0.1 mm 1 mps 684 mmHg 90%
    01:00 +7°C° 0.1 mm 1 mps 685 mmHg 90%
    02:00 +7°C° 0.1 mm 1 mps 685 mmHg 90%
    03:00 +6°C° 0.1 mm 1 mps 685 mmHg 90%
    04:00 +6°C° 0.1 mm 1 mps 685 mmHg 89%
    05:00 +6°C° 0 mm 1 mps 685 mmHg 89%
    06:00 +6°C° 0 mm 1 mps 686 mmHg 88%
    07:00 +6°C° 0 mm 1 mps 686 mmHg 87%
    08:00 +7°C° 0 mm 1 mps 687 mmHg 82%
    09:00 +8°C° 0 mm 1 mps 687 mmHg 77%
    10:00 +9°C° 0 mm 1 mps 688 mmHg 72%
    11:00 +10°C° 0 mm 1 mps 688 mmHg 70%
    12:00 +10°C° 0 mm 1 mps 688 mmHg 68%
    13:00 +11°C° 0 mm 1 mps 688 mmHg 66%
    14:00 +10°C° 0 mm 1 mps 688 mmHg 69%
    15:00 +9°C° 0 mm 1 mps 688 mmHg 72%
    16:00 +9°C° 0 mm 1 mps 688 mmHg 75%
    17:00 +8°C° 0 mm 1 mps 689 mmHg 77%
    18:00 +8°C° 0 mm 1 mps 689 mmHg 80%
    19:00 +7°C° 0 mm 1 mps 689 mmHg 82%
    20:00 +7°C° 0 mm 1 mps 690 mmHg 83%
    21:00 +6°C° 0 mm 1 mps 690 mmHg 83%
    22:00 +5°C° 0 mm 0 mps 690 mmHg 84%
    23:00 +6°C° 0 mm 1 mps 690 mmHg 84%

    23 November, Friday

    Time Temperature Precipitation Wind Pressure Humidity
    00:00 +6°C° 0 mm 1 mps 690 mmHg 85%
    01:00 +6°C° 0 mm 1 mps 690 mmHg 85%
    02:00 +5°C° 0 mm 1 mps 691 mmHg 86%
    03:00 +5°C° 0 mm 1 mps 691 mmHg 87%
    04:00 +5°C° 0 mm 1 mps 691 mmHg 88%
    05:00 +5°C° 0 mm 1 mps 691 mmHg 87%
    06:00 +4°C° 0 mm 1 mps 691 mmHg 87%
    07:00 +4°C° 0 mm 1 mps 692 mmHg 87%
    08:00 +6°C° 0 mm 1 mps 692 mmHg 80%
    09:00 +7°C° 0 mm 1 mps 692 mmHg 74%
    10:00 +8°C° 0 mm 1 mps 693 mmHg 68%
    11:00 +9°C° 0 mm 1 mps 693 mmHg 65%
    12:00 +9°C° 0 mm 1 mps 693 mmHg 63%
    13:00 +10°C° 0 mm 1 mps 692 mmHg 60%
    14:00 +9°C° 0 mm 1 mps 692 mmHg 64%
    15:00 +9°C° 0 mm 1 mps 692 mmHg 67%
    16:00 +8°C° 0 mm 1 mps 692 mmHg 70%
    17:00 +7°C° 0 mm 1 mps 692 mmHg 74%
    18:00 +6°C° 0 mm 1 mps 692 mmHg 77%
    19:00 +6°C° 0 mm 1 mps 693 mmHg 80%
    20:00 +5°C° 0 mm 1 mps 692 mmHg 81%
    21:00 +4°C° 0 mm 0 mps 692 mmHg 83%
    22:00 +3°C° 0 mm 0 mps 692 mmHg 85%
    23:00 +3°C° 0 mm 0 mps 692 mmHg 86%
    Show more